Location: Boullarre
(49.1305°N, 3.0047°E)
Time: 00:38:54
(UTC+00:00)

Cosmos 1709 Rocket - Pass Details

Date: 03 February 2023
Orbit: 947 x 1002 km, 82.9° (Epoch: 21 March)

Event Time Altitude Azimuth Distance (km) Brightness Sun altitude
Rises 19:31:45 0° 349° (N) 3,660 7.2 -27.0°
Reaches altitude 10° 19:34:16 10° 349° (NNW) 2,703 6.5 -27.4°
Maximum altitude 19:40:27 80° 263° (W) 973 3.9 -28.4°
Enters shadow 19:43:14 35° 182° (S) 1,499 4.9 -28.9°
